Location: Camp Crooked Creek
(37.9149°N, 85.6607°W)
Time: 02:12:06
(UTC-04:00)

Daily predictions for brighter satellites

Satellite Brightness Start Highest point End
(mag) Time Altitude Azimuth Time Altitude Azimuth Time Altitude Azimuth
Cosmos 2278 Rocket 4.5 00:09:37 10° N 00:11:26 17° NNE 00:11:26 17° NNE
USA 215 4.2 00:24:24 42° NNW 00:24:24 42° NNW 00:28:33 10° NW
Cosmos 2360 Rocket 4.4 00:40:15 21° NNW 00:40:15 21° NNW 00:42:56 10° N
ATLAS 3B R/B 4.1 01:39:39 35° N 01:39:39 35° N 01:43:49 10° NNE
ATLAS 5 CENTAUR R/B 4.3 03:20:45 19° NE 03:20:45 19° NE 03:22:18 10° NE
CZ-2D R/B 3.9 03:36:08 10° NE 03:39:27 25° ENE 03:39:27 25° ENE
CZ-4C R/B 4.4 03:58:34 15° NNW 03:58:36 15° NNW 04:02:04 10° N
Resurs 1-4 Rocket 3.2 03:55:56 10° NNE 04:00:03 39° ENE 04:00:03 39° ENE
Cosmos 1709 Rocket 4.2 04:04:50 10° N 04:10:20 68° N 04:10:20 68° N
SL-16 R/B 2.7 04:12:41 63° ESE 04:13:15 67° ENE 04:19:23 10° N
USA 234 3.2 04:17:19 10° NE 04:23:52 68° SE 04:24:16 66° SSE
COSMOS 2406 3.4 04:27:10 66° ESE 04:27:10 66° ESE 04:32:48 10° NNE
Cosmos 1943 Rocket 2.7 04:24:58 10° NNW 04:29:08 51° NNW 04:29:08 51° NNW
IRS-1D 3.8 04:34:11 10° N 04:38:39 60° NNW 04:38:39 60° NNW
ARIANE 5 R/B 3.0 04:35:41 10° N 04:39:56 53° NNW 04:39:56 53° NNW
Cosmos 2184 Rocket 4.4 04:37:33 10° N 04:43:54 64° E 04:48:43 18° SSE
CENTAUR R/B 2.6 04:47:56 56° WNW 04:48:30 58° NW 04:55:14 10° NNE
Cosmos 1703 Rocket 4.3 04:48:19 47° ESE 04:48:49 49° E 04:53:08 10° NNE
Cosmos 1933 4.0 04:50:16 54° NE 04:50:16 54° NE 04:53:39 10° NNE
ARGOS Delta rocket 4.0 04:47:42 10° NNE 04:52:03 59° E 04:52:21 57° ESE
Cosmos 2221 Rocket 4.4 04:51:54 43° SE 04:52:38 48° E 04:56:53 10° NNE
Okean O Rocket 2.7 04:48:52 10° NNE 04:53:06 42° E 04:54:18 34° SE
Cosmos 1656 Rocket 3.9 04:48:15 10° NNW 04:53:39 65° ENE 04:59:01 10° SSE
Atlas Centaur 2 3.4 04:56:55 19° SE 04:56:55 19° SE 04:58:51 10° ESE
Cosmos 1825 2.9 04:55:13 10° N 04:58:10 49° NNE 04:58:10 49° NNE
ATLAS 5 CENTAUR R/B 3.5 05:02:18 22° NW 05:02:23 22° NW 05:06:25 10° N
Cosmos 1190 Rocket 4.0 05:04:39 51° S 05:05:56 77° ESE 05:11:09 10° NNE
BREEZE-M DEB (TANK) 4.0 05:06:38 47° SSW 05:08:24 76° SE 05:25:54 10° NE
Sich 1 Rocket 3.8 05:04:29 10° NNW 05:08:05 53° NW 05:08:05 53° NW
Cosmos 1992 Rocket 3.8 05:04:03 10° NNW 05:09:18 82° WSW 05:13:46 14° SSE
CZ-4B R/B 4.0 05:06:09 10° NNE 05:09:41 39° E 05:11:13 27° SSE
Okean 1-7 3.7 05:08:56 32° SSE 05:10:39 53° E 05:14:54 10° NNE
COSMOS 2487 2.6 05:15:18 71° ESE 05:15:18 71° ESE 05:18:54 10° NNE
PSLV R/B 3.7 05:11:31 10° NNE 05:15:20 79° ESE 05:15:43 69° SSE
Cosmos 2285 Rocket 3.9 05:12:07 10° NNW 05:18:29 69° WSW 05:24:48 10° S
CZ-2D R/B 2.8 05:15:53 10° N 05:20:34 34° WNW 05:20:47 34° WNW
PAYLOAD B 4.2 05:20:40 10° NNE 05:26:13 80° ESE 05:30:11 20° S
Thor Agena Rocket 4.3 05:22:23 10° SSE 05:27:23 55° ENE 05:32:29 10° N
MOZ.5/SAFIR/RUBIN 5/SL-8 3.6 05:25:19 12° S 05:29:31 79° WSW 05:34:11 10° NNW
USA 32 4.0 05:30:42 30° SSW 05:33:17 66° W 05:38:31 10° N
Okean 2 Rocket 3.0 05:35:18 10° N 05:39:50 80° W 05:44:20 10° S
Resurs 1-4 Rocket 3.3 05:36:27 10° NNW 05:40:28 23° WNW 05:41:07 22° WNW
Cosmos 676 Rocket 3.9 05:41:13 23° SSW 05:44:31 80° WNW 05:49:45 10° NNE
CZ-2D R/B 4.5 05:40:52 10° N 05:44:36 29° WNW 05:45:04 28° W
ADEOS II 2.9 05:42:44 10° NNE 05:47:53 52° E 05:52:59 10° S
Meteor 2-10 Rocket 4.0 05:43:23 10° S 05:49:08 71° E 05:54:47 10° NNE
Cosmos 1782 Rocket 3.7 05:46:01 10° NNW 05:50:11 46° W 05:53:21 16° SSW
Nadezhda 1 Rocket 4.3 05:46:45 22° SW 05:50:26 45° WNW 05:56:31 10° N
SeaSat 1 2.4 05:49:19 10° SSE 05:54:12 67° WSW 05:59:08 10° NNW
GPS 2-05 Rocket1 2.9 05:54:47 35° WSW 05:55:56 58° S 05:59:14 10° E
Cosmos 2278 4.4 05:51:09 10° NNW 05:56:48 59° ENE 06:02:25 10° SE
SL-16 R/B 3.9 05:57:47 17° W 05:57:47 17° W 06:01:14 10° NW
Cosmos 407 Rocket 4.0 05:55:23 23° SW 05:58:11 43° WNW 06:03:13 10° N
Meteor 1-26 Rocket 4.5 05:54:39 15° SSW 05:59:19 52° WNW 06:05:05 10° N
Cosmos 1408 4.4 05:58:13 10° NW 05:59:45 16° WNW 05:59:45 16° WNW
Aureole 3 Rocket 4.3 06:01:08 15° SW 06:05:53 36° W 06:10:18 10° NNW
USA 234 4.1 06:00:39 10° NNE 06:06:33 37° NNW 06:11:37 14° W
Cosmos 1140 Rocket 3.4 06:04:06 10° SSW 06:09:13 90° N 06:14:24 10° NNE
Abrixas rocket 2.1 06:07:09 12° WNW 06:10:07 71° SW 06:13:27 10° SE
Cosmos 2369 4.1 06:06:34 10° NNW 06:12:19 72° ENE 06:18:00 10° SSE
Cosmos 2181 Rocket 4.0 06:07:34 10° SSW 06:13:58 68° W 06:20:20 10° N
PSLV R/B 4.3 06:14:10 20° WSW 06:15:47 29° SSW 06:18:47 10° SSE
CZ-4B R/B 3.7 06:11:25 10° N 06:16:15 37° WNW 06:20:54 11° SW
Cosmos 1295 Rocket 4.4 06:10:59 10° N 06:17:08 82° W 06:23:18 10° S
Feng Yun 1-1 Rocket 4.2 06:12:22 10° NNE 06:17:48 86° WNW 06:23:16 10° SSW
Cosmos 614 Rocket 4.1 06:16:23 10° SSW 06:21:28 77° ESE 06:26:33 10° NNE
ADEOS Rocket 3.6 06:15:00 10° N 06:22:45 70° WNW 06:30:17 10° SSW
Geosat 4.0 06:19:02 10° NNE 06:24:05 83° WNW 06:29:06 10° SSW
Cosmos 1606 3.2 06:21:28 10° S 06:25:20 65° E 06:29:14 10° NNE
BREEZE M DEB (TANK) 4.0 06:25:01 10° S 06:27:11 26° ESE 06:31:23 10° ENE
Okean O Rocket 3.3 06:26:16 10° NNW 06:29:08 17° WNW 06:31:46 11° WSW
Cosmos 2082 Rocket 2.3 06:25:37 10° SSW 06:31:20 87° ESE 06:37:04 10° NNE
Cosmos 1741 Rocket 4.0 06:26:07 10° SSW 06:31:21 82° WNW 06:36:36 10° NNE
Ariane Rocket 4.3 06:27:18 10° NNE 06:32:10 45° E 06:37:02 10° S
USA 116 4.5 06:29:08 10° S 06:33:57 58° W 06:39:11 10° NNW
Meteor 1-27 Rocket 4.1 06:30:25 10° S 06:35:55 69° E 06:41:25 10° NNE
Cosmos 1782 3.1 06:34:06 10° SSW 06:38:00 49° W 06:41:57 10° N
Cosmos 1833 Rocket 2.9 06:32:36 10° SSW 06:38:11 80° ESE 06:43:49 10° NNE
Meteor 1-10 Rocket 4.3 06:34:27 10° SSW 06:40:12 63° W 06:45:53 10° N
PSLV R/B 4.4 06:36:41 10° N 06:40:36 33° WNW 06:44:32 10° SW
CENTAUR R/B 4.5 06:37:18 10° WNW 06:40:53 15° NNW 06:44:40 10° N
Okean-O 3.3 06:38:03 10° N 06:42:08 37° WNW 06:46:12 10° SW
Timation 2 Rocket 4.0 06:37:22 10° SW 06:43:30 60° WNW 06:49:29 10° NNE
Atlas Centaur 2 2.7 06:39:52 10° WSW 06:43:40 32° S 06:48:16 10° ESE
Cosmos 2208 Rocket 4.1 06:38:44 10° NNW 06:44:13 81° WSW 06:49:36 10° SSE
SL-8 Rocket 4.2 06:44:31 10° NNW 06:50:32 54° W 06:56:35 10° SSW
